Tracking 27124 objects as of 1-Apr-2023
HD Live streaming from Space Station
objects crossing your sky now

LEMUR 2 JOBANPUTRA

Track LEMUR 2 JOBANPUTRA now!
10-day predictions
LEMUR 2 JOBANPUTRA is classified as:


NORAD ID: 41997
Int'l Code: 2017-008BB
Perigee: 368.1 km
Apogee: 374.4 km
Inclination: 97.2 °
Period: 91.8 minutes
Semi major axis: 6742 km
RCS: Unknown
Launch date: February 15, 2017
Source: United States (US)
Launch site: SRIHARIKOTA (SRI)
Your satellite tracking list
Your tracking list is empty




NASA's NSSDC Master Catalog

Two Line Element Set (TLE):
1 41997U 17008BB  23090.18745912  .00225802  00000-0  19773-2 0  9995
2 41997  97.2191 160.8746 0004691 243.2042 116.8740 15.68177131340699
Source of the keplerian elements: AFSPC